Pagina principală
METAR-TAF:

METAR-TAF

Aeroporturi :

Enid, Oklahoma, Statele Unite ale Americii

Latitudine: 36-22-45N, longitudine: 097-47-28W, elevație: 356 m

Observații meteo curente

Raportul a fost făcut în urmă cu 17 de minute, la 13:50 UTC
Vânt 14 kt de la Sud
Temperatură 28°C
Umiditate 58%
Presiune 1014 hPa
Vizibilitate: 16.1 km
Nori împrăștiați la o înălțime de 20000 picior

METAR: KWDG 151350Z 19014KT 10SM SCT200 28/19 A2994

Ora: 09:07 (14:07 UTC)


TAF: lipsă

Observații și prognoze meteo pentru peste 4.000 de aeroporturi (rapoarte METAR și TAF).

Stațiile disponibile sunt reprezentate pe hartă prin puncte galbene și roșii.

Țineți indicatorul mouse-ului pe punctul dorit pentru a vedea denumirea stației.

Apoi, faceți clic pentru a vedea observațiile și prognozele meteorologice.

Pentru a schimba harta: Pentru mărire, faceți clic pe butoanele verzi cu cruce neagră; pentru micșorare, pe butonul verde cu o liniuță; pentru hărți învecinate, pe săgețile verzi.


METAR-TAF: